Location: Poughquag
(41.6090°N, 73.6820°W)
Time: 12:43:08
(UTC-04:00)

Tiros 1 - Pass Details

Date: 29 May 2020
Orbit: 630 x 664 km, 48.4° (Epoch: 06 July)

Event Time Altitude Azimuth Distance (km) Brightness Sun altitude
Rises 12:45:34 0° 206° (SSW) 2,965 10.8 70.1°
Reaches altitude 10° 12:48:12 10° 193° (SSW) 2,051 10.2 70.1°
Maximum altitude 12:52:08 26° 137° (SE) 1,262 9.3 70.2°
Drops below altitude 10° 12:56:03 10° 81° (E) 2,042 9.8 70.1°
Sets 12:58:40 0° 69° (ENE) 2,949 10.4 70.1°
